{"data":{"norad_id":58044,"epoch":"2026-05-24T21:44:20.281056Z","epoch_age_seconds":76494,"freshness":"FRESH","line1":"1 58044U 23156S   26144.90579029  .00054612  00000+0  16327-2 0  9994","line2":"2 58044  53.1611 173.9967 0001051  84.3531 275.7591 15.34069090146704","mean_motion":15.3406909,"eccentricity":0.0001051,"inclination_deg":53.1611,"raan_deg":173.9967,"arg_perigee_deg":84.3531,"mean_anomaly_deg":275.7591,"bstar":0.0016327,"rev_number":14670,"period_min":93.868001733872,"perigee_km":462.96787555803,"apogee_km":464.40602695258,"semimajor_km":6841.8239512553,"source":"CELESTRAK","updated_at":"2026-05-25T13:38:18.497326Z"}}